This demonstration page uses our WeatherBlox Daily Observations layout. Learn more.

Left ArrowRight Arrow

39.51506, -84.39828

Hourly Observations for August 28, 2020

Temp ( °F °C ) Dew Point ( °F °C ) Humidity (%) Winds ( mph kmh ) Pressure ( in mb ) Visibility ( mi km ) Precip ( " mm )
12:15 am 00:15 Clear 76 24.3 75 23.9 98 98 Calm 29.94 1014 10 16.0934 0 0
12:35 am 00:35 Clear 75 23.8 75 23.7 99 99 Calm 29.95 1014 10 16.0934 0 0
12:55 am 00:55 Clear 75 24 75 24 100 100 Calm 29.95 1014 10 16.0934 0 0
1:15 am 01:15 Clear 75 24 N/A N/A Calm 29.95 1014 10 16.0934 0 0
1:30 am 01:30 Clear 75 24 N/A N/A Calm 29.94 1014 7 11.26538 0 0
1:55 am 01:55 Clear with Light Rain 75 24 N/A N/A Calm 29.94 1014 10 16.0934 0 0
2:15 am 02:15 Partly Cloudy 73 23 N/A N/A Calm 29.94 1014 7 11.26538 0 0
2:35 am 02:35 Partly Cloudy 75 24 N/A N/A Calm 29.93 1013 7 11.26538 0 0
2:55 am 02:55 Hazy 73 23 N/A N/A Calm 29.93 1013 7 11.26538 0 0
3:15 am 03:15 Hazy 73 23 N/A N/A Calm 29.92 1013 5 8.0467 0 0
3:35 am 03:35 Mostly Cloudy with Mist and Fog 73 23 N/A N/A Calm 29.91 1013 1.75 2.816345 0 0
3:55 am 03:55 Hazy 73 23 N/A N/A Calm 29.91 1013 4 6.43736 0 0
4:15 am 04:15 Hazy 73 23 N/A N/A Calm 29.91 1013 7 11.26538 0 0
4:35 am 04:35 Hazy 73 23 N/A N/A Calm 29.91 1013 4 6.43736 0 0
4:55 am 04:55 Clear with Mist and Fog 73 23 N/A N/A Calm 29.9 1012 4 6.43736 0 0
5:15 am 05:15 Hazy 73 23 N/A N/A Calm 29.89 1012 7 11.26538 0 0
5:35 am 05:35 Clear with Mist and Fog 73 23 N/A N/A Calm 29.89 1012 3.5 5.63269 0 0
5:55 am 05:55 Hazy 73 23 N/A N/A Calm 29.88 1012 4 6.43736 0 0
6:15 am 06:15 Mostly Cloudy with Mist and Fog 73 23 N/A N/A Calm 29.88 1012 1.75 2.816345 0 0
6:35 am 06:35 Mostly Cloudy with Mist and Fog N/A N/A N/A SW 3 6 N/A 1.75 2.816345 0 0
6:55 am 06:55 Clear with Mist and Fog N/A N/A N/A Calm N/A 3 4.82802 0 0
7:15 am 07:15 Sunny with Mist and Fog N/A N/A N/A Calm N/A 4 6.43736 0 0
7:35 am 07:35 Hazy N/A N/A N/A Calm N/A 4 6.43736 0 0
7:55 am 07:55 Hazy N/A N/A N/A Calm N/A 5 8.0467 0 0
8:15 am 08:15 Sunny 75 24 N/A N/A S 5 7 29.91 1013 10 16.0934 0 0
8:35 am 08:35 Sunny 77 25.2 76 24.2 94 94 S 6 9 29.9 1013 10 16.0934 0 0
8:55 am 08:55 Sunny 78 25.4 75 24 92 92 S 3 6 29.91 1013 10 16.0934 0 0
9:15 am 09:15 Sunny 78 25.6 75 24 91 91 S 5 7 29.91 1013 10 16.0934 0 0
9:35 am 09:35 Sunny 78 25.7 75 23.9 90 90 Calm 29.91 1013 10 16.0934 0 0
9:55 am 09:55 Sunny 79 26.2 75 23.9 87 87 Calm 29.91 1013 10 16.0934 0 0
10:15 am 10:15 Sunny 81 27 75 24 84 84 WSW 3 6 29.91 1013 10 16.0934 0 0
10:35 am 10:35 Mostly Cloudy 81 27.1 75 23.9 83 83 SW 3 6 29.91 1013 10 16.0934 0 0
10:55 am 10:55 Mostly Cloudy 82 27.5 75 23.8 80 80 S 6 9 29.9 1012 10 16.0934 0 0
11:15 am 11:15 Sunny 82 27.8 75 23.9 79 79 SSW 6 9 29.9 1012 10 16.0934 0 0
11:35 am 11:35 Mostly Cloudy 82 28 75 24 79 79 SW 7 11 29.9 1012 10 16.0934 0 0
11:55 am 11:55 Partly Cloudy with Nearby Thunderstorms 83 28.6 75 23.8 75 75 SW 7 11 29.89 1012 10 16.0934 0 0
12:15 pm 12:15 Sunny 87 30.3 75 23.8 68 68 SSW 10 17 29.86 1011 10 16.0934 0 0
12:35 pm 12:35 Sunny 86 30.1 73 22.9 65 65 SW 10 17 29.85 1011 10 16.0934 0 0
12:55 pm 12:55 Mostly Cloudy 85 29.7 74 23.3 69 69 SSW 12 19 29.85 1011 10 16.0934 0 0
1:15 pm 13:15 Mostly Cloudy with Nearby Thunderstorms 84 29 74 23.6 73 73 SSW 10 17 29.84 1011 10 16.0934 0 0
1:35 pm 13:35 Partly Cloudy 81 27 77 24.9 88 88 S 9 15 29.84 1010 7 11.26538 0 0
1:55 pm 13:55 Partly Cloudy with Nearby Thunderstorms 84 29 75 24 74 74 S 12 19 29.81 1010 10 16.0934 0 0
2:15 pm 14:15 Sunny with Nearby Thunderstorms 85 29.4 76 24.4 75 75 S 13 20 29.81 1010 10 16.0934 0 0
2:35 pm 14:35 Partly Cloudy 84 29.1 75 24 74 74 SW 12 19 29.8 1009 10 16.0934 0 0
2:55 pm 14:55 Sunny 84 28.8 71 21.7 66 66 SW 13 20 29.79 1009 10 16.0934 0 0
3:15 pm 15:15 Partly Cloudy with Nearby Thunderstorms 82 28 72 22.3 71 71 SSW 16 26 29.8 1009 10 16.0934 0 0
3:35 pm 15:35 Cloudy with Rain 76 24.6 73 23 91 91 SW 12 19 29.78 1009 10 16.0934 0.01 0.254
3:55 pm 15:55 Partly Cloudy 76 24.6 74 23.5 94 94 WSW 5 7 29.76 1008 10 16.0934 0.01 0.254
4:15 pm 16:15 Sunny 78 25.4 75 23.7 90 90 W 6 9 29.77 1008 10 16.0934 0 0
4:35 pm 16:35 Sunny 78 25.6 74 23.6 89 89 WSW 7 11 29.76 1008 10 16.0934 0 0
4:55 pm 16:55 Mostly Cloudy 79 25.9 74 23.6 87 87 SW 5 7 29.76 1008 10 16.0934 0 0
5:15 pm 17:15 Partly Cloudy 80 26.7 74 23.5 83 83 SW 3 6 29.76 1008 10 16.0934 0 0
5:35 pm 17:35 Sunny 80 26.6 74 23.3 82 82 SSW 6 9 29.76 1008 10 16.0934 0 0
5:55 pm 17:55 Sunny 80 26.5 74 23.2 82 82 SSW 6 9 29.77 1008 10 16.0934 0 0
6:15 pm 18:15 Partly Cloudy 80 26.6 74 23.4 83 83 SW 3 6 29.77 1008 10 16.0934 0 0
6:35 pm 18:35 Sunny 80 26.6 74 23.6 84 84 Calm 29.76 1008 10 16.0934 0 0
6:55 pm 18:55 Mostly Cloudy 80 26.6 75 23.8 85 85 Calm 29.76 1008 10 16.0934 0 0
7:15 pm 19:15 Sunny 80 26.6 75 23.7 84 84 Calm 29.75 1007 10 16.0934 0 0
7:35 pm 19:35 Partly Cloudy 80 26.5 75 23.8 85 85 E 3 6 29.75 1007 10 16.0934 0 0
7:55 pm 19:55 Sunny 79 26.3 75 23.9 87 87 Calm 29.75 1007 10 16.0934 0 0
8:15 pm 20:15 Partly Cloudy 79 26 75 23.8 88 88 E 5 7 29.75 1007 10 16.0934 0 0
8:35 pm 20:35 Partly Cloudy 78 25.6 75 24 91 91 ESE 3 6 29.74 1007 10 16.0934 0 0
8:55 pm 20:55 Clear 78 25.6 75 24 91 91 SSE 3 6 29.73 1007 10 16.0934 0 0
9:15 pm 21:15 Clear 78 25.6 75 23.8 90 90 Calm 29.74 1007 10 16.0934 0 0
9:35 pm 21:35 Partly Cloudy 76 24.6 75 23.7 95 95 S 3 6 29.74 1007 10 16.0934 0 0
9:55 pm 21:55 Partly Cloudy 77 25.1 74 23.2 89 89 S 6 9 29.74 1007 10 16.0934 0 0
10:15 pm 22:15 Mostly Cloudy 77 25.1 74 23.2 89 89 S 3 6 29.75 1008 10 16.0934 0 0
10:35 pm 22:35 Partly Cloudy 77 24.9 73 22.9 89 89 S 9 15 29.74 1007 10 16.0934 0 0
10:55 pm 22:55 Clear 76 24.6 73 22.6 89 89 S 10 17 29.74 1007 10 16.0934 0 0
11:15 pm 23:15 Partly Cloudy 76 24.2 73 22.7 91 91 S 7 11 29.73 1007 10 16.0934 0 0
11:35 pm 23:35 Clear 75 23.9 73 22.7 93 93 S 8 13 29.73 1007 10 16.0934 0 0
11:55 pm 23:55 Partly Cloudy 74 23.6 73 22.6 94 94 S 8 13 29.72 1006 10 16.0934 0 0

Powered by AerisWeather